Flag for Germany Weather past 2 weeks in Oberursel (Taunus), Hesse, Germany

Now
69 °F

Overcast.


Feels Like: 69 °F
Forecast: 50 / 60 °F
Wind: 3 mph from East

Location: Frankfurt / M-Flughafen

Current Time: May 24, 2015 at 5:43:14 PM

Latest Report: May 24, 2015 at 4:00 PM


Visibility: 19 mi

Pressure: 30.05 "Hg

Humidity: 45%

Dew point: 47 °F

Location of Oberursel (Taunus)Location

Historic Weather in Oberursel (Taunus) — Graph

°F

Oberursel (Taunus) temperature yesterday

Maximum temperature yesterday: 70 °F (at 4:00 PM)
Minimum temperature yesterday: 57 °F (at 2:00 AM)
Average temperature yesterday: 63 °F

Past Weeks' High & Low Weather Summary

 TemperatureHumidityPressure
High83 °F (May 12, 5:00 PM)98% (May 10, 4:00 AM)30.35 "Hg (May 10, 4:00 AM)
Low40 °F (May 21, 4:00 AM)25% (May 18, 3:00 PM)29.67 "Hg (May 19, 3:00 AM)
Average59 °F59%30.08 "Hg
* Reported May 9 4:00 PM — May 24 4:00 PM, Oberursel (Taunus), Weather by CustomWeather, © 2015

Note: Actual official high and low records may vary slightly from our data, if they occured in-between our weather recording intervals... More about our weather records

Advertising

Oberursel (Taunus) weather history for previous 24 hours

 ConditionsComfort  
Time TempWeatherWind HumidityBarometerVisibility
4:00 PM
Sun, May 24
69 °FOvercast.3 mph45%30.05 "Hg19 mi
3:00 PM72 °FPartly sunny.2 mph44%30.05 "Hg19 mi
2:00 PM70 °FOvercast.2 mph46%30.07 "Hg16 mi
1:00 PM67 °FOvercast.2 mph56%30.09 "Hg16 mi
12:00 PM65 °FOvercast.2 mph62%30.10 "Hg14 mi
10:00 AM60 °FOvercast.3 mph72%30.12 "Hg14 mi
9:00 AM58 °FOvercast.5 mph74%30.11 "Hg14 mi
8:00 AM58 °FOvercast.5 mph75%30.11 "Hg14 mi
7:00 AM58 °FOvercast.3 mph76%30.09 "Hg14 mi
6:00 AM57 °FOvercast.3 mph77%30.09 "Hg16 mi
5:00 AM58 °FOvercast.5 mph76%30.09 "Hg16 mi
4:00 AM59 °FOvercast.6 mph74%30.09 "Hg16 mi
3:00 AM59 °FOvercast.6 mph71%30.09 "Hg19 mi
2:00 AM60 °FOvercast.7 mph71%30.10 "Hg19 mi
1:00 AM61 °FOvercast.5 mph69%30.10 "Hg22 mi
12:00 AM63 °FOvercast.6 mph64%30.10 "Hg25 mi
10:00 PM
Sat, May 23
64 °FOvercast.2 mph60%30.09 "Hg25 mi
9:00 PM65 °FOvercast.3 mph57%30.07 "Hg25 mi
8:00 PM66 °FOvercast.5 mph56%30.07 "Hg22 mi
7:00 PM67 °FOvercast.5 mph50%30.06 "Hg22 mi
6:00 PM67 °FOvercast.6 mph47%30.06 "Hg25 mi
Weather by CustomWeather, © 2015

See weather overviewHow to use our weather pages